Wind_Speed
7 7 9 5 7 10 19 18 15 15 6 3 7 10 12 5 6 11 9 12 12 14 13 12 20 20 17 15 13 11 8 7 6 7 4 2 2 5 7 8 7 7 7 7 7 7 7 7 6
5 6 9 4 9 14 18 15 10 6 4 1 4 9 14 19 10 9 7 8 9 12 16 17 19 20 18 16 13 12 10 8 7 7 4 1 2 5 6 8 9 9 9 9 8 9 9 9 9
2 4 6 4 10 21 16 9 4 5 10 14 12 10 16 20 17 10 7 7 4 6 10 14 17 20 18 16 14 12 12 10 8 8 5 3 1 4 6 7 10 11 11 10 10 9 9 9 9
3 4 3 12 18 16 22 18 7 8 13 10 13 8 13 15 16 14 9 8 2 9 10 12 14 18 18 16 14 14 13 12 9 9 8 6 3 4 6 8 10 12 13 12 11 11 11 11 10
1 0 9 16 22 19 24 15 6 7 3 4 8 12 9 8 13 11 15 14 9 10 9 9 11 16 16 17 16 15 14 13 11 11 11 8 6 6 7 8 10 12 13 13 12 11 12 12 11
2 9 19 25 26 30 13 20 17 12 8 10 11 11 11 7 6 9 8 8 9 8 7 7 10 12 15 16 16 15 15 14 12 11 12 11 9 8 8 9 11 12 13 14 13 13 13 13 12
5 9 18 27 31 28 9 11 5 5 4 7 12 9 8 8 6 6 7 10 10 9 8 8 9 12 14 16 17 16 16 16 16 14 13 13 11 11 12 12 13 13 13 14 14 13 14 14 14
9 16 26 20 20 23 4 1 6 7 10 7 13 13 11 12 14 12 10 10 10 11 10 8 9 12 14 17 18 18 18 17 17 16 15 14 13 13 14 15 16 16 16 16 15 15 14 14 15
5 15 23 13 14 12 13 11 8 4 11 17 17 19 18 18 18 13 15 14 15 14 12 9 11 12 15 17 20 20 21 19 18 17 16 16 16 16 17 18 18 18 18 17 16 16 15 15 15
12 18 21 18 21 19 9 8 9 9 9 19 25 23 21 22 21 22 18 17 19 18 16 14 15 15 16 18 20 20 20 19 18 17 17 18 17 18 20 20 20 20 19 18 17 16 16 16 15
12 21 24 26 19 20 18 11 4 11 13 10 12 21 19 13 19 19 19 19 20 19 18 17 17 17 18 18 19 20 18 18 18 17 18 18 20 21 21 21 22 21 20 20 19 18 18 17 16
11 12 20 17 18 23 22 16 12 8 13 20 18 12 14 11 12 14 17 18 18 19 19 17 19 20 18 19 21 19 19 19 19 19 20 20 21 21 22 22 23 22 21 21 20 20 19 19 19
14 14 17 19 19 16 17 21 14 14 17 23 21 21 17 18 21 20 21 21 20 20 19 18 21 21 20 20 20 20 20 20 21 21 21 20 22 22 22 22 23 23 23 22 22 21 20 20 20
19 20 22 21 22 24 15 16 15 16 17 25 25 25 25 22 21 22 27 28 25 24 22 20 22 22 22 21 21 23 23 20 20 21 20 20 21 21 21 22 23 23 23 23 23 22 22 21 20
19 22 20 19 16 13 10 16 16 14 15 25 27 27 26 24 22 21 25 28 28 24 23 19 21 24 23 23 24 24 22 20 20 20 20 20 21 21 21 21 23 24 24 25 24 23 23 21 22
20 18 18 4 14 21 22 22 15 4 12 22 24 20 23 24 27 25 25 28 30 26 23 22 24 24 25 26 25 25 23 21 20 21 21 21 23 22 21 23 25 26 25 25 25 23 23 23 26
14 21 21 23 3 10 17 17 12 15 11 11 16 18 22 23 26 29 31 30 33 32 29 27 26 26 27 26 25 25 24 22 21 22 22 22 22 22 23 25 26 25 24 24 24 25 27 25 24
17 25 17 12 4 5 13 18 19 12 17 24 25 24 25 30 34 36 37 34 33 34 31 30 28 28 27 27 27 26 25 24 21 22 24 24 23 23 24 26 26 25 25 26 26 26 24 23 23
19 18 18 19 19 22 24 27 25 23 24 28 32 30 29 32 38 38 37 35 34 34 32 30 30 28 27 27 27 26 26 23 21 20 21 22 24 26 26 28 28 26 25 24 24 25 26 22 21
21 21 20 24 20 22 29 35 32 28 28 30 32 29 27 33 40 40 38 38 34 33 30 27 28 28 29 29 28 26 23 21 23 22 22 23 25 27 28 26 26 24 24 24 24 25 27 24 21
25 19 19 23 24 25 31 45 35 23 24 26 30 30 29 37 43 43 42 38 33 32 28 27 26 28 31 30 27 23 24 24 23 23 22 24 26 27 24 25 24 25 24 23 24 24 26 27 25
19 16 17 20 23 21 10 28 33 31 27 27 35 32 30 35 42 44 41 34 29 27 30 26 27 29 33 29 26 24 27 24 21 22 23 25 23 23 25 23 22 22 23 23 24 24 25 26 26
17 19 22 22 22 30 20 17 32 32 33 21 17 19 25 32 38 36 34 28 25 29 29 24 26 29 31 28 24 26 26 24 21 22 22 23 23 22 20 19 20 21 23 23 24 24 23 23 23
22 22 23 21 22 21 27 21 37 26 16 13 11 12 19 21 23 25 24 23 25 29 28 26 23 25 26 26 24 26 27 26 24 22 20 18 17 17 17 19 21 23 23 22 21 21 21 20 16
16 15 8 5 6 10 20 19 21 20 23 18 18 17 15 19 24 26 28 26 27 23 22 18 18 20 22 24 24 26 26 24 22 19 14 15 14 16 18 20 22 21 20 20 19 19 18 14 9
12 13 5 6 2 11 28 12 23 27 25 15 13 15 13 13 17 23 27 26 21 21 20 16 17 18 15 19 22 24 25 26 22 19 14 19 16 18 19 22 20 18 18 17 17 16 12 6 2
15 19 19 15 25 10 14 24 26 12 4 1 2 4 9 7 13 20 25 26 23 19 20 13 15 13 11 16 20 23 26 25 24 22 17 18 18 19 21 21 19 17 17 16 15 11 7 3 4
14 18 19 17 5 14 11 15 8 16 14 15 14 13 10 11 13 17 24 26 31 24 21 15 14 12 13 16 16 20 23 25 25 21 19 19 20 20 21 19 18 18 16 14 12 9 5 5 5
21 23 22 24 25 11 13 11 13 13 13 8 13 10 14 14 13 8 11 21 25 26 18 14 13 14 15 17 15 19 20 22 22 22 22 22 21 22 21 19 18 17 15 14 11 9 8 7 5
26 29 28 22 15 21 11 15 19 12 10 19 15 22 28 26 17 16 22 23 22 24 21 19 18 18 19 20 24 26 22 22 23 22 23 22 23 22 20 19 18 16 15 13 12 11 10 8 7
Wind_Direction
282 270 282 277 255 251 269 276 306 297 232 275 290 252 249 235 211 239 203 197 227 222 227 240 227 222 222 217 214 211 209 212 208 189 175 145 44 22 16 9 359 347 337 326 321 316 307 292 287
276 258 245 202 248 257 279 319 196 286 323 214 292 275 254 255 269 212 182 174 216 235 233 237 231 225 226 224 219 219 221 224 222 210 201 183 19 1 5 360 351 345 340 332 332 325 312 299 292
224 241 263 253 264 253 262 328 360 310 320 315 291 268 263 245 245 240 207 160 135 229 224 234 230 230 231 227 224 225 225 227 228 217 216 233 285 330 342 351 347 347 340 334 336 330 322 314 304
223 230 251 240 250 275 276 288 277 348 329 322 272 255 241 254 254 248 223 206 227 251 240 230 228 232 232 230 228 228 230 231 233 224 225 237 273 310 326 339 344 342 337 335 333 327 321 317 313
7 154 270 266 276 286 297 257 178 264 297 201 237 274 261 263 255 254 236 250 255 256 239 228 226 228 231 229 229 233 235 239 241 240 236 246 260 280 299 315 323 327 327 329 326 321 317 317 314
291 272 278 283 296 301 260 248 273 287 281 264 255 271 256 263 258 253 243 230 248 253 241 242 233 235 235 234 236 243 242 246 247 253 249 252 264 274 288 301 311 315 321 323 320 316 313 311 311
259 296 286 294 293 302 272 242 265 144 298 262 265 251 233 240 276 284 264 238 245 256 261 252 245 242 241 240 241 246 247 251 249 250 249 255 268 283 292 298 301 306 311 313 311 304 303 306 308
233 274 280 271 293 321 253 322 260 258 226 220 247 249 247 265 267 274 280 255 253 261 257 247 253 254 252 244 240 245 250 255 253 253 251 258 268 277 286 291 293 298 303 305 302 300 300 298 300
258 264 260 270 323 339 335 328 311 304 253 255 257 260 274 272 269 273 269 262 261 261 250 255 264 264 254 246 244 243 245 245 246 251 256 259 267 276 282 286 290 295 299 299 297 297 295 294 293
259 264 278 288 310 303 291 337 341 309 310 249 254 265 273 273 263 267 265 253 253 256 253 259 261 263 260 251 248 241 239 240 244 247 254 265 273 279 286 288 289 294 295 295 296 293 291 290 287
270 262 274 277 309 296 306 261 303 292 279 273 289 267 269 273 273 262 257 250 248 244 248 252 256 262 263 257 253 249 250 252 252 256 261 271 280 284 286 289 294 297 299 297 299 294 293 290 289
299 253 267 280 297 281 285 278 229 269 303 296 295 288 261 276 281 272 257 252 251 251 253 263 265 269 262 260 258 256 255 257 261 266 271 277 278 282 283 287 291 293 292 293 294 292 293 295 296
252 249 266 261 262 275 286 293 266 256 280 285 292 286 281 275 278 273 266 258 254 258 266 276 268 266 262 266 260 255 254 254 263 266 271 274 275 280 286 292 294 292 291 291 291 292 292 295 296
262 262 263 261 266 263 258 278 286 281 266 274 279 281 281 284 286 276 270 268 268 269 271 272 266 264 267 265 261 259 257 260 262 271 274 276 280 284 289 291 288 289 290 290 289 288 288 289 292
286 287 284 280 275 271 264 256 264 288 289 252 261 277 284 291 293 276 271 272 275 276 276 265 258 262 264 261 262 264 266 269 271 272 275 278 282 284 286 286 288 289 289 287 287 287 286 285 287
294 283 279 278 286 283 239 243 292 302 267 227 243 264 281 284 289 282 277 265 267 272 270 260 257 259 258 260 262 263 268 266 266 268 272 275 277 280 285 287 289 289 287 285 284 283 280 284 287
295 277 288 299 245 228 223 257 275 254 259 238 251 267 268 264 258 264 275 274 267 266 263 257 256 257 260 261 260 261 262 261 266 274 275 274 277 283 284 284 285 284 282 282 281 281 283 287 288
288 303 294 291 225 306 276 264 275 271 276 254 270 272 266 257 252 259 261 266 269 271 268 262 256 256 257 256 257 261 264 265 260 264 268 271 278 282 285 283 281 281 282 283 285 286 288 292 293
278 279 285 276 266 291 288 278 272 269 267 263 264 263 264 245 248 245 250 260 276 280 277 268 259 255 255 255 258 263 267 269 270 269 269 272 278 281 276 276 278 282 285 286 288 290 292 293 292
274 285 295 286 286 288 282 273 271 270 272 275 275 267 260 244 237 239 249 260 276 283 292 280 266 260 254 256 261 267 273 271 268 270 269 272 273 273 272 275 279 283 285 288 291 291 291 292 289
267 290 297 294 292 280 285 283 286 290 279 277 267 258 254 247 240 241 248 258 276 281 292 286 276 259 255 256 261 264 261 260 262 266 270 275 275 269 274 277 283 286 288 288 289 291 290 292 291
279 281 273 288 299 302 297 297 291 299 297 296 283 269 249 248 234 242 246 253 275 279 287 285 276 263 259 258 259 257 257 258 264 261 263 263 268 274 276 282 285 287 288 289 289 290 291 291 290
269 282 277 286 292 292 283 264 283 302 302 285 284 280 244 229 226 236 243 248 265 278 280 277 274 259 256 256 254 256 260 259 257 257 262 267 271 274 280 286 288 287 287 288 290 292 291 290 288
265 269 273 278 279 270 266 254 283 302 316 284 282 266 218 207 214 228 243 253 268 273 277 275 272 261 258 255 250 255 256 254 254 255 263 270 275 283 289 291 292 290 288 290 292 292 289 290 291
249 284 274 292 221 247 290 294 271 299 316 311 289 262 229 222 232 242 255 262 267 264 262 264 265 264 258 255 256 254 256 255 256 260 271 274 283 292 292 298 298 291 290 293 291 292 293 296 296
248 254 239 247 208 288 299 273 288 307 316 318 230 233 227 229 235 244 251 257 249 251 263 267 264 268 272 256 258 256 251 249 253 258 270 290 284 288 299 301 293 289 294 291 293 294 290 286 275
274 257 259 298 294 276 274 276 281 284 309 37 359 262 265 248 224 241 249 256 258 266 273 260 254 264 265 254 250 248 249 247 248 251 272 272 284 295 302 304 293 291 291 289 289 280 263 211 164
265 280 270 262 258 269 258 277 281 327 323 316 286 257 239 257 266 246 249 267 271 274 268 261 256 266 274 266 254 247 249 250 260 264 273 280 282 289 299 301 292 289 284 282 271 247 212 185 156
277 276 272 268 254 251 264 272 271 316 317 310 267 266 281 256 242 252 270 252 269 281 264 271 275 276 288 288 258 246 249 249 256 266 271 272 278 286 291 293 288 282 275 269 248 217 197 189 171
262 273 273 273 283 279 289 253 261 286 327 319 299 302 302 304 282 314 315 302 297 295 289 286 290 283 278 277 275 250 243 245 251 256 262 269 277 280 285 287 283 273 267 258 231 214 207 185 182
Height
3148 3148 3148 3147 3151 3144 3138 3135 3138 3139 3138 3136 3134 3135 3138 3140 3143 3145 3141 3145 3147 3150 3151 3154 3156 3157 3158 3160 3161 3162 3163 3163 3163 3164 3164 3165 3165 3164 3164 3164 3163 3163 3162 3161 3160 3160 3160 3160 3160
3146 3147 3147 3145 3145 3141 3138 3137 3137 3137 3136 3136 3135 3133 3135 3139 3140 3141 3142 3143 3146 3148 3148 3151 3153 3155 3157 3158 3159 3160 3161 3162 3162 3162 3163 3163 3163 3163 3163 3163 3163 3162 3161 3161 3159 3159 3159 3159 3159
3145 3144 3146 3144 3141 3137 3137 3141 3136 3135 3133 3133 3135 3134 3135 3136 3139 3140 3141 3142 3144 3147 3148 3150 3151 3153 3155 3156 3158 3158 3160 3160 3160 3161 3162 3161 3161 3161 3162 3162 3162 3161 3160 3159 3158 3157 3157 3157 3157
3145 3144 3145 3142 3137 3134 3136 3142 3136 3133 3133 3132 3132 3134 3134 3135 3138 3139 3140 3141 3143 3147 3148 3148 3150 3151 3153 3154 3155 3156 3157 3158 3158 3159 3159 3159 3160 3160 3161 3160 3160 3160 3159 3158 3156 3156 3156 3155 3155
3143 3144 3142 3139 3134 3136 3139 3139 3136 3134 3131 3130 3130 3133 3136 3135 3135 3136 3140 3141 3142 3145 3146 3147 3148 3149 3150 3151 3152 3153 3154 3155 3156 3157 3157 3158 3157 3158 3157 3157 3157 3158 3157 3156 3155 3154 3154 3153 3152
3142 3143 3141 3137 3134 3134 3135 3134 3132 3133 3130 3130 3130 3132 3135 3136 3135 3136 3138 3139 3141 3143 3143 3144 3145 3146 3147 3148 3149 3150 3152 3153 3153 3154 3155 3156 3155 3155 3155 3155 3155 3155 3155 3154 3153 3152 3151 3151 3150
3140 3142 3140 3138 3133 3132 3132 3130 3130 3131 3128 3128 3129 3130 3133 3133 3134 3136 3137 3138 3139 3140 3140 3141 3142 3143 3144 3145 3147 3148 3149 3150 3150 3150 3152 3153 3153 3154 3153 3153 3153 3152 3152 3151 3150 3150 3149 3148 3147
3139 3140 3138 3135 3136 3131 3130 3130 3128 3128 3129 3128 3127 3128 3132 3133 3133 3134 3135 3135 3136 3137 3138 3139 3139 3140 3141 3142 3143 3145 3146 3147 3148 3148 3149 3150 3150 3150 3150 3150 3150 3149 3148 3147 3147 3146 3145 3145 3144
3140 3139 3134 3134 3137 3136 3132 3129 3128 3126 3128 3127 3126 3128 3131 3131 3131 3131 3132 3134 3134 3135 3135 3136 3137 3137 3137 3138 3139 3140 3141 3142 3143 3145 3146 3147 3147 3147 3147 3147 3146 3146 3145 3144 3143 3142 3141 3141 3140
3136 3136 3132 3134 3135 3132 3131 3129 3126 3125 3125 3122 3125 3126 3129 3127 3127 3128 3129 3130 3130 3131 3132 3133 3133 3134 3134 3134 3135 3136 3137 3138 3139 3140 3141 3142 3143 3143 3143 3143 3142 3141 3140 3140 3139 3138 3138 3137 3137
3133 3132 3132 3130 3131 3128 3128 3129 3127 3126 3125 3119 3122 3123 3125 3125 3124 3124 3125 3127 3128 3127 3128 3129 3130 3130 3129 3131 3132 3133 3135 3136 3136 3137 3137 3138 3138 3139 3138 3138 3137 3136 3136 3135 3135 3134 3133 3133 3132
3128 3128 3127 3127 3126 3124 3122 3122 3122 3123 3122 3119 3119 3120 3122 3123 3123 3123 3123 3124 3124 3125 3126 3127 3127 3127 3127 3127 3128 3130 3131 3133 3133 3134 3134 3135 3134 3134 3133 3133 3133 3132 3131 3130 3130 3130 3129 3128 3127
3124 3124 3123 3123 3122 3121 3121 3120 3120 3121 3119 3116 3117 3118 3118 3120 3120 3119 3119 3120 3121 3122 3123 3124 3122 3122 3123 3125 3125 3127 3128 3130 3129 3129 3129 3130 3129 3129 3128 3128 3128 3127 3127 3126 3125 3125 3124 3123 3122
3121 3120 3119 3119 3118 3118 3118 3118 3119 3120 3122 3115 3114 3115 3116 3115 3114 3114 3112 3114 3117 3119 3120 3121 3118 3117 3119 3120 3121 3122 3122 3125 3125 3124 3125 3125 3124 3124 3124 3124 3123 3122 3121 3121 3121 3120 3119 3118 3117
3119 3116 3114 3112 3112 3112 3115 3114 3114 3115 3115 3112 3108 3108 3110 3111 3110 3109 3106 3106 3108 3112 3114 3116 3115 3114 3115 3116 3117 3117 3118 3120 3120 3120 3121 3120 3120 3120 3121 3119 3118 3118 3117 3116 3115 3114 3114 3113 3113
3116 3113 3109 3106 3106 3105 3110 3109 3111 3110 3109 3109 3108 3106 3104 3104 3104 3103 3103 3101 3101 3106 3108 3111 3110 3111 3111 3111 3112 3112 3113 3115 3115 3115 3115 3115 3116 3116 3116 3114 3113 3113 3112 3110 3109 3109 3108 3109 3107
3112 3111 3109 3105 3103 3102 3105 3105 3107 3107 3107 3109 3108 3105 3101 3099 3098 3096 3096 3097 3097 3099 3102 3104 3106 3106 3107 3108 3108 3107 3108 3110 3111 3111 3112 3111 3111 3111 3110 3109 3108 3107 3107 3106 3105 3104 3103 3103 3101
3108 3109 3108 3105 3106 3103 3102 3102 3103 3104 3103 3104 3103 3103 3100 3095 3090 3089 3089 3090 3093 3095 3098 3099 3100 3100 3101 3102 3103 3103 3104 3105 3105 3104 3106 3106 3105 3105 3104 3103 3102 3101 3101 3100 3099 3097 3097 3097 3096
3107 3105 3104 3103 3100 3099 3096 3094 3096 3097 3097 3097 3097 3097 3096 3093 3087 3085 3084 3086 3090 3090 3091 3092 3094 3095 3095 3096 3097 3098 3099 3100 3100 3100 3101 3101 3100 3099 3099 3097 3096 3096 3094 3093 3092 3090 3089 3091 3089
3102 3101 3101 3100 3099 3098 3091 3086 3089 3091 3091 3090 3087 3088 3090 3088 3081 3077 3078 3080 3085 3086 3087 3087 3088 3089 3089 3090 3091 3093 3095 3095 3094 3096 3095 3095 3095 3093 3093 3092 3090 3090 3089 3087 3086 3084 3082 3083 3084
3100 3099 3099 3099 3096 3095 3091 3076 3083 3086 3083 3080 3077 3077 3080 3077 3072 3071 3071 3074 3078 3080 3081 3082 3083 3083 3081 3083 3085 3087 3087 3088 3089 3090 3090 3090 3090 3089 3087 3087 3085 3084 3083 3082 3080 3079 3077 3075 3076
3095 3098 3096 3093 3092 3091 3095 3074 3079 3077 3074 3073 3067 3067 3068 3066 3065 3063 3064 3069 3073 3075 3075 3076 3076 3076 3075 3077 3079 3080 3079 3081 3084 3084 3084 3084 3084 3083 3083 3081 3080 3079 3077 3076 3075 3074 3072 3070 3068
3091 3091 3091 3091 3090 3085 3088 3088 3067 3072 3069 3067 3061 3057 3055 3057 3058 3060 3062 3067 3069 3069 3069 3070 3070 3069 3068 3071 3073 3072 3073 3076 3078 3080 3080 3080 3080 3080 3079 3077 3076 3075 3073 3072 3070 3069 3066 3064 3062
3086 3087 3087 3087 3088 3077 3080 3085 3063 3073 3067 3064 3061 3056 3055 3056 3057 3058 3059 3061 3063 3064 3064 3064 3064 3063 3064 3065 3067 3067 3069 3071 3073 3074 3076 3076 3075 3075 3074 3073 3071 3070 3069 3067 3065 3063 3061 3058 3056
3083 3086 3084 3082 3081 3074 3073 3073 3071 3067 3065 3062 3061 3059 3054 3055 3054 3054 3054 3055 3057 3059 3059 3059 3058 3058 3059 3060 3062 3063 3065 3067 3068 3070 3072 3073 3072 3071 3070 3069 3066 3065 3063 3062 3060 3057 3055 3053 3051
3079 3081 3082 3078 3075 3072 3067 3062 3064 3061 3057 3054 3054 3053 3051 3050 3052 3053 3052 3052 3052 3052 3052 3054 3054 3054 3055 3057 3057 3058 3061 3062 3063 3066 3067 3068 3068 3067 3066 3064 3061 3059 3058 3057 3055 3052 3052 3049 3049
3076 3075 3077 3073 3068 3067 3060 3060 3064 3057 3056 3053 3052 3052 3051 3051 3049 3048 3049 3049 3047 3046 3048 3049 3049 3049 3050 3051 3052 3053 3055 3056 3057 3059 3061 3062 3062 3061 3061 3058 3056 3054 3053 3052 3051 3050 3050 3048 3048
3071 3071 3070 3070 3065 3057 3053 3054 3055 3052 3052 3053 3050 3050 3048 3047 3048 3046 3047 3046 3046 3044 3045 3044 3045 3045 3046 3046 3046 3049 3050 3052 3053 3054 3054 3055 3056 3056 3056 3053 3052 3050 3049 3048 3048 3049 3047 3048 3047
3064 3062 3063 3063 3058 3055 3053 3053 3054 3047 3048 3050 3048 3046 3047 3045 3044 3044 3043 3042 3042 3044 3042 3041 3040 3040 3042 3042 3043 3044 3045 3047 3048 3049 3050 3050 3051 3051 3050 3048 3047 3046 3045 3045 3045 3046 3045 3046 3046
3057 3056 3057 3054 3051 3049 3047 3047 3048 3045 3046 3046 3044 3044 3041 3039 3040 3039 3039 3037 3037 3040 3038 3037 3035 3034 3034 3037 3038 3038 3039 3039 3041 3042 3043 3044 3045 3045 3044 3043 3042 3042 3041 3042 3042 3043 3044 3043 3044